Flag for U.S.A. Weather past 2 weeks in Allentown, Pennsylvania, U.S.A.

Now
32 °F

Partly sunny.


Feels Like: 20 °F
Forecast: 25 / 37 °F
Wind: 20 mph from North

Location: Lehigh Valley International Airport

Current Time: Mar 28, 2015 at 7:02:34 PM

Latest Report: Mar 28, 2015 at 5:51 PM


Visibility: 10 mi

Pressure: 30.00 "Hg

Humidity: 43%

Dew point: 12 °F

Location of AllentownLocation

Historic Weather in Allentown — Graph

°F

Allentown temperature yesterday

Maximum temperature yesterday: 46 °F (at 3:51 PM)
Minimum temperature yesterday: 35 °F (at 10:51 PM)
Average temperature yesterday: 41 °F

Past Weeks' High & Low Weather Summary

 TemperatureHumidityPressure
High58 °F (Mar 17, 11:51 AM)100% (Mar 21, 8:51 AM)30.43 "Hg (Mar 21, 8:51 AM)
Low22 °F (Mar 19, 4:51 AM)19% (Mar 18, 3:51 PM)29.59 "Hg (Mar 26, 6:03 PM)
Average37 °F60%30.05 "Hg
* Reported Mar 13 5:51 PM — Mar 28 5:51 PM, Allentown, Weather by CustomWeather, © 2015

Note: Actual official high and low records may vary slightly from our data, if they occured in-between our weather recording intervals... More about our weather records

Advertising

Allentown weather history for previous 24 hours

 ConditionsComfort  
Time TempWeatherWind HumidityBarometerVisibility
5:51 PM
Sat, Mar 28
32 °FPartly sunny.20 mph43%30.00 "Hg10 mi
4:51 PM34 °FScattered clouds.17 mph42%29.96 "Hg10 mi
3:51 PM36 °FScattered clouds.15 mph38%29.93 "Hg10 mi
2:51 PM37 °FScattered clouds.18 mph39%29.91 "Hg10 mi
1:51 PM36 °FOvercast.20 mph40%29.90 "Hg10 mi
12:51 PM35 °FOvercast.14 mph44%29.90 "Hg10 mi
11:51 AM35 °FOvercast.17 mph44%29.91 "Hg10 mi
10:51 AM34 °FPassing clouds.16 mph50%29.91 "Hg10 mi
9:51 AM32 °FScattered clouds.16 mph50%29.90 "Hg10 mi
8:51 AM31 °FOvercast.16 mph57%29.89 "Hg10 mi
7:51 AM32 °FPassing clouds.12 mph56%29.87 "Hg10 mi
6:51 AM31 °FOvercast.15 mph59%29.85 "Hg10 mi
5:51 AM31 °FOvercast.6 mph59%29.83 "Hg10 mi
4:51 AM32 °FOvercast.9 mph59%29.82 "Hg10 mi
3:51 AM32 °FPassing clouds.12 mph61%29.82 "Hg10 mi
2:51 AM33 °FPassing clouds.10 mph66%29.81 "Hg10 mi
1:51 AM34 °FPassing clouds.8 mph70%29.83 "Hg10 mi
12:51 AM35 °FPassing clouds.8 mph70%29.82 "Hg10 mi
11:51 PM
Fri, Mar 27
35 °FPassing clouds.7 mph67%29.83 "Hg10 mi
10:51 PM35 °FPassing clouds.6 mph67%29.82 "Hg10 mi
9:51 PM39 °FOvercast.3 mph55%29.82 "Hg10 mi
8:51 PM38 °FOvercast.No wind63%29.81 "Hg10 mi
7:51 PM40 °FPartly sunny.6 mph53%29.78 "Hg10 mi
Weather by CustomWeather, © 2015

See weather overviewHow to use our weather pages